SWA2024 KLAS-KDEN

Flight info

Callsign SWA2024
Flight time N/A
Altitude 37000
Route GIDGT3 TUKRR BUMMP SSKII4
Aircraft B738/M-SADE2E3GIJ4RWZ/LB1D1

Departure

Time 2026-05-04 22:19
Airport Harry Reid International Airport (KLAS)

Arrival

Time N/A
Airport Denver International Airport (KDEN)
Time Latitude Longitude Altitude Speed Heading
2026-05-04 21:44 36.08494 -115.15402 2187 ft 0 kts 334°
2026-05-04 21:52 36.08487 -115.15398 2187 ft 4 kts 334°
2026-05-04 21:52 36.08463 -115.15383 2187 ft 3 kts 334°
2026-05-04 21:52 36.08444 -115.15372 2187 ft 4 kts 335°
2026-05-04 21:52 36.08424 -115.15361 2187 ft 4 kts 335°
2026-05-04 21:53 36.08417 -115.15357 2187 ft 1 kts 334°
2026-05-04 21:58 36.08419 -115.15366 2189 ft 2 kts 276°
2026-05-04 21:58 36.08411 -115.15371 2188 ft 3 kts 190°
2026-05-04 21:59 36.08397 -115.15380 2189 ft 4 kts 225°
2026-05-04 21:59 36.08379 -115.15434 2190 ft 11 kts 246°
2026-05-04 21:59 36.08335 -115.15546 2187 ft 16 kts 232°
2026-05-04 21:59 36.08221 -115.15533 2187 ft 19 kts 155°
2026-05-04 22:00 36.08091 -115.15458 2189 ft 22 kts 154°
2026-05-04 22:00 36.07952 -115.15377 2188 ft 21 kts 155°
2026-05-04 22:00 36.07879 -115.15269 2189 ft 17 kts 94°
2026-05-04 22:00 36.07878 -115.15128 2187 ft 16 kts 90°
2026-05-04 22:01 36.07871 -115.14993 2189 ft 16 kts 94°
2026-05-04 22:01 36.07862 -115.14859 2187 ft 16 kts 95°
2026-05-04 22:01 36.07853 -115.14726 2187 ft 15 kts 95°
2026-05-04 22:01 36.07845 -115.14598 2187 ft 15 kts 94°
2026-05-04 22:02 36.07839 -115.14517 2190 ft 14 kts 95°
2026-05-04 22:02 36.07829 -115.14359 2187 ft 13 kts 94°
2026-05-04 22:02 36.07828 -115.14283 2189 ft 13 kts 90°
2026-05-04 22:02 36.07828 -115.14161 2187 ft 16 kts 90°
2026-05-04 22:03 36.07828 -115.13997 2187 ft 22 kts 90°
2026-05-04 22:03 36.07827 -115.13801 2191 ft 23 kts 90°
2026-05-04 22:03 36.07828 -115.13605 2189 ft 22 kts 90°
2026-05-04 22:03 36.07828 -115.13416 2189 ft 22 kts 90°
2026-05-04 22:04 36.07828 -115.13233 2191 ft 20 kts 90°
2026-05-04 22:04 36.07828 -115.13100 2187 ft 12 kts 90°
2026-05-04 22:04 36.07828 -115.12998 2189 ft 12 kts 90°
2026-05-04 22:04 36.07828 -115.12899 2187 ft 11 kts 90°
2026-05-04 22:05 36.07828 -115.12803 2189 ft 11 kts 90°
2026-05-04 22:05 36.07829 -115.12709 2187 ft 11 kts 90°
2026-05-04 22:05 36.07828 -115.12618 2188 ft 10 kts 90°
2026-05-04 22:05 36.07829 -115.12530 2189 ft 10 kts 90°
2026-05-04 22:06 36.07829 -115.12501 2187 ft 0 kts 90°
2026-05-04 22:07 36.07829 -115.12462 2189 ft 9 kts 90°
2026-05-04 22:08 36.07829 -115.12403 2187 ft 0 kts 90°
2026-05-04 22:10 36.07829 -115.12372 2187 ft 9 kts 89°
2026-05-04 22:11 36.07829 -115.12332 2187 ft 0 kts 90°
2026-05-04 22:13 36.07828 -115.12288 2191 ft 8 kts 94°
2026-05-04 22:13 36.07828 -115.12282 2187 ft 0 kts 99°
2026-05-04 22:14 36.07821 -115.12262 2190 ft 5 kts 118°
2026-05-04 22:14 36.07791 -115.12212 2187 ft 9 kts 128°
2026-05-04 22:15 36.07750 -115.12148 2187 ft 5 kts 133°
2026-05-04 22:15 36.07747 -115.12145 2187 ft 0 kts 133°
2026-05-04 22:17 36.07733 -115.12133 2188 ft 7 kts 155°
2026-05-04 22:18 36.07659 -115.12130 2191 ft 14 kts 204°
2026-05-04 22:18 36.07643 -115.12279 2188 ft 31 kts 270°
2026-05-04 22:18 36.07642 -115.12844 2187 ft 100 kts 270°
2026-05-04 22:18 36.07638 -115.13959 2192 ft 157 kts 270°
2026-05-04 22:19 36.07665 -115.15398 2687 ft 171 kts 269°
2026-05-04 22:19 36.07695 -115.16850 3510 ft 169 kts 265°
2026-05-04 22:19 36.07678 -115.18390 3920 ft 195 kts 266°
2026-05-04 22:19 36.07664 -115.20179 4250 ft 217 kts 266°
2026-05-04 22:20 36.07643 -115.22084 4825 ft 225 kts 266°
2026-05-04 22:20 36.07638 -115.24027 5475 ft 227 kts 266°
2026-05-04 22:20 36.07700 -115.25983 6318 ft 231 kts 278°
2026-05-04 22:20 36.08441 -115.27764 7147 ft 241 kts 310°
2026-05-04 22:21 36.09937 -115.28905 7529 ft 269 kts 341°
2026-05-04 22:21 36.11796 -115.29445 8169 ft 279 kts 345°
2026-05-04 22:21 36.13745 -115.29634 8873 ft 289 kts